GW1915 Weather Reports


Display with metric or nautical units.
time (UTC)temp
F
wind
direction
speed
MPH
gust
MPH
rain 1hr
in
rain 24hr
in
rain mn
in
humidity
%
barometer
mb
20260506131626 61 191 1.0 3.0 0.00 0.00 0.00 86 1003.9
20260506131121 61 170 3.0 4.0 0.00 0.00 0.00 86 1003.9
20260506130619 61 167 2.0 3.0 0.00 0.00 0.00 86 1003.9
20260506130116 61 167 1.0 2.0 0.00 0.00 0.00 86 1003.9
20260506125614 61 143 2.0 6.0 0.00 0.00 0.00 87 1003.9
20260506125112 61 113 1.0 2.0 0.00 0.00 0.00 87 1003.9
20260506124609 61 175 2.0 4.0 0.00 0.00 0.00 87 1003.9
20260506124107 61 165 0.0 3.0 0.00 0.00 0.00 87 1004.2
20260506123604 60 107 3.0 6.0 0.00 0.00 0.00 87 1004.5
20260506123103 60 146 0.0 3.0 0.00 0.00 0.00 87 1004.2
20260506122559 60 163 3.0 6.0 0.00 0.00 0.00 87 1004.2
20260506122057 60 167 2.0 7.0 0.00 0.00 0.00 87 1004.2
20260506121554 60 163 1.0 3.0 0.00 0.00 0.00 88 1004.5
20260506121050 60 214 1.0 6.0 0.00 0.00 0.00 89 1004.5
20260506120549 59 164 0.0 3.0 0.00 0.00 0.00 89 1004.5
20260506120045 59 165 2.0 6.0 0.00 0.00 0.00 90 1004.5
20260506115544 59 117 2.0 4.0 0.00 0.00 0.00 91 1004.5
20260506115042 58 127 1.0 6.0 0.00 0.00 0.00 91 1004.2
20260506114539 58 172 0.0 7.0 0.00 0.00 0.00 92 1004.5
20260506114037 58 222 1.0 3.0 0.00 0.00 0.00 92 1004.2
20260506113535 57 167 1.0 6.0 0.00 0.00 0.00 93 1004.2
20260506113032 57 165 0.0 6.0 0.00 0.00 0.00 94 1004.2
20260506112528 57 161 1.0 4.0 0.00 0.00 0.00 94 1004.2
20260506112026 57 156 2.0 2.0 0.00 0.00 0.00 95 1004.2
20260506111524 56 243 2.0 3.0 0.00 0.00 0.00 95 1004.5
20260506111021 56 170 3.0 4.0 0.00 0.00 0.00 96 1004.5
20260506110518 55 162 1.0 3.0 0.00 0.00 0.00 97 1004.2
20260506110015 55 169 1.0 2.0 0.00 0.00 0.00 97 1004.5
20260506105511 55 174 0.0 3.0 0.00 0.00 0.00 98 1004.5
20260506105009 54 190 0.0 2.0 0.00 0.00 0.00 98 1004.5
20260506104507 54 164 1.0 4.0 0.00 0.00 0.00 98 1004.5
20260506104005 54 156 2.0 3.0 0.00 0.00 0.00 98 1004.5
20260506103501 54 99 3.0 6.0 0.00 0.00 0.00 98 1004.2
20260506102958 54 161 1.0 2.0 0.00 0.00 0.00 99 1004.2
20260506102456 54 163 2.0 2.0 0.00 0.00 0.00 99 1004.2
20260506101953 54 120 2.0 3.0 0.00 0.00 0.00 99 1004.2
20260506101449 54 137 1.0 3.0 0.00 0.00 0.00 99 1004.2
20260506100947 54 159 0.0 2.0 0.00 0.00 0.00 98 1004.2
20260506100446 54 174 1.0 3.0 0.00 0.00 0.00 98 1004.5
20260506095943 54 186 2.0 3.0 0.00 0.00 0.00 98 1004.2
20260506095442 54 162 1.0 3.0 0.00 0.00 0.00 98 1004.2
20260506094937 54 158 1.0 2.0 0.00 0.00 0.00 98 1004.2
20260506094436 54 158 1.0 3.0 0.00 0.00 0.00 97 1003.9
20260506093933 54 164 0.0 1.0 0.00 0.00 0.00 97 1004.2
20260506093431 54 147 1.0 2.0 0.00 0.00 0.00 97 1003.9
20260506092928 54 165 1.0 2.0 0.00 0.00 0.00 97 1004.2
20260506092426 55 154 1.0 4.0 0.00 0.00 0.00 97 1004.2
20260506091922 55 169 1.0 2.0 0.00 0.00 0.00 96 1004.2
20260506091421 55 145 2.0 3.0 0.00 0.00 0.00 96 1003.9
20260506090917 55 122 2.0 4.0 0.00 0.00 0.00 96 1003.9
20260506090415 55 156 1.0 3.0 0.00 0.00 0.00 96 1004.2
20260506085912 55 158 1.0 2.0 0.00 0.00 0.00 95 1004.2
20260506085409 55 200 2.0 3.0 0.00 0.00 0.00 95 1004.2
20260506084905 55 158 1.0 3.0 0.00 0.00 0.00 95 1004.5
20260506084402 55 148 2.0 2.0 0.00 0.00 0.00 95 1004.5
20260506083858 55 204 3.0 4.0 0.00 0.00 0.00 95 1004.5
20260506083356 55 144 2.0 4.0 0.00 0.00 0.00 94 1004.2
20260506082853 55 137 2.0 6.0 0.00 0.00 0.00 94 1004.5
20260506082349 55 144 2.0 6.0 0.00 0.00 0.00 94 1004.5
20260506081845 55 211 0.0 4.0 0.00 0.00 0.00 93 1004.5
20260506081344 55 177 1.0 6.0 0.00 0.00 0.00 93 1004.5
20260506080841 55 176 3.0 6.0 0.00 0.00 0.00 93 1004.5
20260506080337 55 190 3.0 6.0 0.00 0.00 0.00 93 1004.5
20260506073322 56 187 2.0 2.0 0.00 0.00 0.00 92 1004.5
20260506072818 56 146 0.0 3.0 0.00 0.00 0.00 92 1004.5
20260506072316 56 240 2.0 3.0 0.00 0.00 0.00 92 1004.5
20260506071814 56 170 1.0 3.0 0.00 0.00 0.00 92 1004.5
20260506071312 56 307 2.0 2.0 0.00 0.00 0.00 92 1004.5
20260506070808 56 181 2.0 3.0 0.00 0.00 0.00 91 1004.5
20260506070305 56 134 2.0 6.0 0.00 0.00 0.00 91 1004.5
20260506062242 57 225 2.0 2.0 0.00 0.00 0.00 89 1004.5
20260506061738 58 161 1.0 3.0 0.00 0.00 0.00 88 1004.5
20260506061236 58 125 3.0 4.0 0.00 0.00 0.00 88 1004.5
20260506060734 58 164 1.0 2.0 0.00 0.00 0.00 87 1004.5
20260506060231 58 195 3.0 7.0 0.00 0.00 0.00 87 1004.5
20260506051203 59 225 2.0 3.0 0.00 0.00 0.00 84 1004.9
20260506050701 60 165 0.0 2.0 0.00 0.00 0.00 83 1004.9
20260506050158 60 256 3.0 3.0 0.00 0.00 0.00 82 1004.9
20260506044649 60 178 2.0 9.0 0.00 0.00 0.00 81 1004.9
20260506044145 60 161 3.0 3.0 0.00 0.00 0.00 81 1004.9
20260506043643 60 198 1.0 3.0 0.00 0.00 0.00 81 1004.9
20260506043141 59 200 2.0 2.0 0.00 0.00 0.00 81 1004.9
20260506042640 60 204 2.0 6.0 0.00 0.00 0.00 81 1004.9
20260506042137 60 141 2.0 2.0 0.00 0.00 0.00 80 1004.9
20260506041636 60 221 3.0 7.0 0.00 0.00 0.00 80 1004.9
20260506041132 60 219 1.0 6.0 0.00 0.00 0.00 79 1004.9
20260506040630 60 179 3.0 4.0 0.00 0.00 0.00 79 1004.9
20260506040126 60 167 2.0 3.0 0.00 0.00 0.00 79 1004.9
20260506035623 60 150 4.0 4.0 0.00 0.00 0.00 79 1005.2
20260506035120 60 148 4.0 4.0 0.00 0.00 0.00 79 1004.9
20260506034617 60 159 2.0 3.0 0.00 0.00 0.00 79 1004.9
20260506034114 60 197 3.0 6.0 0.00 0.00 0.00 78 1005.2
20260506033611 60 185 2.0 3.0 0.00 0.00 0.00 78 1005.2
20260506033108 60 159 2.0 3.0 0.00 0.00 0.00 78 1004.9
20260506032606 60 191 2.0 7.0 0.00 0.00 0.00 78 1004.9
20260506032102 61 155 2.0 4.0 0.00 0.00 0.00 77 1004.9
20260506031600 61 152 2.0 7.0 0.00 0.00 0.00 77 1004.9
20260506031056 61 115 4.0 4.0 0.00 0.00 0.00 77 1004.9
20260506030555 61 117 3.0 4.0 0.00 0.00 0.00 76 1004.9
20260506030052 61 162 3.0 4.0 0.00 0.00 0.00 76 1004.9
20260506025549 61 156 3.0 4.0 0.00 0.00 0.00 76 1004.9
20260506025044 61 214 2.0 6.0 0.00 0.00 0.00 76 1004.9
20260506024542 61 163 2.0 3.0 0.00 0.00 0.00 76 1004.9
20260506024038 61 244 2.0 3.0 0.00 0.00 0.00 76 1004.9
20260506023534 62 179 1.0 7.0 0.00 0.00 0.00 75 1004.9
20260506023032 62 172 1.0 4.0 0.00 0.00 0.00 75 1004.9
20260506022529 61 176 1.0 2.0 0.00 0.00 0.00 75 1004.9
20260506022027 62 166 2.0 6.0 0.00 0.00 0.00 75 1004.9
20260506021524 62 103 2.0 3.0 0.00 0.00 0.00 75 1005.2
20260506021021 62 171 1.0 2.0 0.00 0.00 0.00 74 1004.9
20260506020519 63 248 2.0 3.0 0.00 0.00 0.00 72 1004.9
20260506020016 63 153 2.0 6.0 0.00 0.00 0.00 72 1004.9
20260506015513 63 175 1.0 6.0 0.00 0.00 0.00 72 1004.9
20260506015010 63 177 2.0 3.0 0.00 0.00 0.00 71 1004.5
20260506014508 63 137 1.0 6.0 0.00 0.00 0.00 71 1004.5
20260506014003 63 173 1.0 9.0 0.00 0.00 0.00 70 1004.5
20260506013501 63 180 2.0 6.0 0.00 0.00 0.00 71 1004.5
20260506012957 64 166 2.0 4.0 0.00 0.00 0.00 69 1004.5
20260506012454 64 133 2.0 3.0 0.00 0.00 0.00 70 1004.5
20260506011951 64 150 1.0 2.0 0.00 0.00 0.00 70 1004.5
20260506011448 64 140 2.0 3.0 0.00 0.00 0.00 69 1004.2
20260506010945 64 205 1.0 4.0 0.00 0.00 0.00 69 1003.9
20260506010444 64 258 5.0 7.0 0.00 0.00 0.00 68 1004.2
20260506005939 64 161 4.0 6.0 0.00 0.00 0.00 69 1004.2
20260506005437 64 158 1.0 2.0 0.00 0.00 0.00 68 1004.2
20260506004932 64 146 4.0 6.0 0.00 0.00 0.00 68 1003.9
20260506004431 64 162 2.0 3.0 0.00 0.00 0.00 67 1003.9
20260506003926 64 151 1.0 3.0 0.00 0.00 0.00 68 1003.9
20260506003423 65 187 1.0 2.0 0.00 0.00 0.00 68 1003.9
20260506002920 65 156 0.0 3.0 0.00 0.00 0.00 67 1003.9
20260506002416 65 158 3.0 6.0 0.00 0.00 0.00 67 1003.5
20260506001911 65 167 0.0 2.0 0.00 0.00 0.00 67 1003.9
20260506001409 65 203 2.0 4.0 0.00 0.00 0.00 66 1003.5
20260506000906 66 197 1.0 3.0 0.00 0.00 0.00 66 1003.5
20260506000403 66 186 1.0 2.0 0.00 0.00 0.00 66 1003.5
20260505235900 66 191 3.0 4.0 0.00 0.00 0.00 66 1003.5
20260505235358 66 160 1.0 2.0 0.00 0.00 0.00 66 1003.2
20260505234854 66 212 1.0 6.0 0.00 0.00 0.00 66 1003.5
20260505234352 66 232 1.0 1.0 0.00 0.00 0.00 66 1003.2
20260505233849 66 174 1.0 3.0 0.00 0.00 0.00 66 1003.2
20260505233347 66 157 2.0 4.0 0.00 0.00 0.00 65 1003.2
20260505232844 66 160 2.0 6.0 0.00 0.00 0.00 65 1003.2
20260505232342 67 185 0.0 3.0 0.00 0.00 0.00 64 1003.2
20260505231838 67 158 1.0 2.0 0.00 0.00 0.00 64 1003.2
20260505231336 67 180 1.0 2.0 0.00 0.00 0.00 64 1003.2
20260505230834 68 262 2.0 4.0 0.00 0.00 0.00 63 1002.9
20260505230330 68 207 5.0 7.0 0.00 0.00 0.00 62 1002.9
20260505225827 68 160 2.0 7.0 0.00 0.00 0.00 63 1002.9
20260505225324 68 206 1.0 7.0 0.00 0.00 0.00 62 1002.5
20260505224819 68 169 3.0 7.0 0.00 0.00 0.00 61 1002.9
20260505224318 68 164 4.0 7.0 0.00 0.00 0.00 61 1002.5
20260505223814 68 124 4.0 4.0 0.00 0.00 0.00 61 1002.9
20260505223312 69 264 4.0 6.0 0.00 0.00 0.00 60 1002.5
20260505222807 69 178 2.0 8.0 0.00 0.00 0.00 60 1002.9
20260505222305 70 190 2.0 7.0 0.00 0.00 0.00 60 1002.9
20260505221801 70 165 2.0 7.0 0.00 0.00 0.00 60 1002.9
20260505221257 70 167 4.0 6.0 0.00 0.00 0.00 59 1002.9
20260505220754 70 170 3.0 7.0 0.00 0.00 0.00 59 1002.9
20260505220251 71 173 3.0 6.0 0.00 0.00 0.00 59 1002.9
20260505215750 71 246 2.0 6.0 0.00 0.00 0.00 58 1002.5
20260505215247 71 236 4.0 8.0 0.00 0.00 0.00 58 1002.9
20260505214745 71 230 1.0 3.0 0.00 0.00 0.00 58 1002.5
20260505214242 72 137 6.0 8.0 0.00 0.00 0.00 57 1002.9
20260505213739 72 193 3.0 7.0 0.00 0.00 0.00 57 1002.5
20260505213236 72 150 2.0 6.0 0.00 0.00 0.00 58 1002.5
20260505212732 72 166 3.0 6.0 0.00 0.00 0.00 57 1002.5
20260505212230 73 174 1.0 3.0 0.00 0.00 0.00 57 1002.5
20260505211726 72 201 3.0 7.0 0.00 0.00 0.00 57 1002.5
20260505211224 72 158 2.0 7.0 0.00 0.00 0.00 58 1002.5
20260505210720 73 218 4.0 6.0 0.00 0.00 0.00 56 1002.5
20260505210217 73 202 4.0 7.0 0.00 0.00 0.00 55 1002.5
20260505205714 74 139 2.0 4.0 0.00 0.00 0.00 55 1002.1
20260505205213 74 228 4.0 8.0 0.00 0.00 0.00 54 1002.5
20260505204709 73 200 2.0 6.0 0.00 0.00 0.00 55 1002.5
20260505204207 74 140 2.0 9.0 0.00 0.00 0.00 55 1002.5
20260505203704 73 137 1.0 6.0 0.00 0.00 0.00 55 1002.5
20260505203200 74 169 2.0 6.0 0.00 0.00 0.00 54 1002.1
20260505202656 74 151 5.0 7.0 0.00 0.00 0.00 55 1002.1
20260505202152 74 178 3.0 4.0 0.00 0.00 0.00 55 1002.5
20260505201649 75 235 5.0 7.0 0.00 0.00 0.00 53 1002.5
20260505201147 75 194 3.0 7.0 0.00 0.00 0.00 55 1002.5
20260505200645 74 219 4.0 7.0 0.00 0.00 0.00 54 1002.5
20260505200141 75 126 3.0 11.0 0.00 0.00 0.00 54 1002.5
20260505195637 74 111 4.0 8.0 0.00 0.00 0.00 54 1002.5
20260505195135 75 170 1.0 6.0 0.00 0.00 0.00 54 1002.9
20260505194632 75 252 3.0 4.0 0.00 0.00 0.00 53 1002.9
20260505194128 75 131 3.0 7.0 0.00 0.00 0.00 53 1002.9
20260505193625 75 191 3.0 6.0 0.00 0.00 0.00 53 1002.9
20260505193122 75 262 3.0 10.0 0.00 0.00 0.00 53 1002.9
20260505192620 75 214 4.0 7.0 0.00 0.00 0.00 53 1002.5
20260505192117 76 198 3.0 10.0 0.00 0.00 0.00 51 1002.9
20260505191616 76 172 2.0 6.0 0.00 0.00 0.00 54 1002.9
20260505191113 76 236 4.0 7.0 0.00 0.00 0.00 51 1003.2
20260505190609 77 164 7.0 13.0 0.00 0.00 0.00 52 1003.2
20260505190104 77 139 1.0 4.0 0.00 0.00 0.00 52 1003.2
20260505185601 76 136 3.0 7.0 0.00 0.00 0.00 52 1003.2
20260505185057 77 192 3.0 7.0 0.00 0.00 0.00 50 1003.5
20260505184554 77 292 2.0 3.0 0.00 0.00 0.00 49 1003.5
20260505184051 78 160 6.0 9.0 0.00 0.00 0.00 49 1003.2
20260505183547 78 236 5.0 7.0 0.00 0.00 0.00 48 1003.2
20260505183045 78 172 3.0 6.0 0.00 0.00 0.00 47 1003.2
20260505182541 78 147 4.0 9.0 0.00 0.00 0.00 48 1003.5
20260505182038 78 200 7.0 9.0 0.00 0.00 0.00 47 1003.5
20260505181535 77 203 4.0 6.0 0.00 0.00 0.00 49 1003.5
20260505181032 78 181 3.0 9.0 0.00 0.00 0.00 48 1003.5
20260505180528 78 191 4.0 7.0 0.00 0.00 0.00 48 1003.5
20260505180027 77 142 3.0 7.0 0.00 0.00 0.00 49 1003.5
20260505175526 78 179 4.0 8.0 0.00 0.00 0.00 48 1003.5
20260505175023 78 228 2.0 8.0 0.00 0.00 0.00 48 1003.5
20260505174520 78 123 3.0 7.0 0.00 0.00 0.00 48 1003.5
20260505174016 78 183 2.0 9.0 0.00 0.00 0.00 50 1003.5
20260505173513 78 152 4.0 6.0 0.00 0.00 0.00 47 1003.5
20260505173010 79 236 2.0 4.0 0.00 0.00 0.00 47 1003.5
20260505172508 78 131 2.0 8.0 0.00 0.00 0.00 48 1003.9
20260505172003 78 197 2.0 6.0 0.00 0.00 0.00 50 1003.5
20260505171459 77 212 3.0 7.0 0.00 0.00 0.00 49 1003.5
20260505170956 79 214 2.0 4.0 0.00 0.00 0.00 47 1003.9
20260505170452 78 179 3.0 7.0 0.00 0.00 0.00 48 1003.5
20260505165948 77 163 3.0 4.0 0.00 0.00 0.00 49 1003.9
20260505165444 77 231 4.0 6.0 0.00 0.00 0.00 47 1003.9
20260505164939 77 224 3.0 6.0 0.00 0.00 0.00 47 1003.9
20260505164436 75 160 2.0 4.0 0.00 0.00 0.00 50 1003.9
20260505163934 77 274 6.0 8.0 0.00 0.00 0.00 49 1003.9
20260505163433 76 167 2.0 8.0 0.00 0.00 0.00 50 1004.2
20260505162932 77 336 2.0 7.0 0.00 0.00 0.00 51 1004.2
20260505162427 77 111 3.0 7.0 0.00 0.00 0.00 50 1004.5
20260505161924 76 234 2.0 2.0 0.00 0.00 0.00 50 1004.5
20260505161421 77 224 2.0 3.0 0.00 0.00 0.00 51 1004.2
20260505160918 75 134 2.0 7.0 0.00 0.00 0.00 53 1004.5
20260505160416 76 150 4.0 4.0 0.00 0.00 0.00 51 1004.2
20260505153349 75 148 1.0 3.0 0.00 0.00 0.00 53 1004.5
20260505152846 74 153 4.0 4.0 0.00 0.00 0.00 53 1004.5
20260505152343 74 140 3.0 6.0 0.00 0.00 0.00 54 1004.9
20260505151838 73 207 1.0 6.0 0.00 0.00 0.00 53 1004.9
20260505151335 72 221 2.0 4.0 0.00 0.00 0.00 55 1004.9
20260505150831 73 161 4.0 6.0 0.00 0.00 0.00 55 1004.9
20260505150328 74 163 2.0 3.0 0.00 0.00 0.00 56 1005.2
20260505140253 67 212 3.0 6.0 0.00 0.00 0.00 64 1004.9